QPF
0.00 0.00 0.01 0.00 0.00 0.01 0.01 0.01 0.01 0.01 0.01 0.00 0.00 0.00 0.00 0.00 0.00 0.00 0.00 0.00 0.00 0.00 0.00 0.00 0.00 0.00 0.01 0.05 0.11 0.09 0.02 0.00 0.00 0.00 0.00 0.00 0.00 0.00 0.00 0.00 0.00 0.00 0.00 0.00 0.00
0.00 0.01 0.01 0.00 0.00 0.01 0.01 0.00 0.00 0.00 0.01 0.00 0.00 0.00 0.01 0.01 0.00 0.00 0.00 0.00 0.00 0.00 0.00 0.00 0.00 0.00 0.02 0.05 0.10 0.10 0.02 0.00 0.00 0.00 0.00 0.00 0.00 0.00 0.00 0.00 0.00 0.00 0.00 0.00 0.00
0.00 0.01 0.01 0.00 0.01 0.01 0.00 0.00 0.00 0.00 0.00 0.00 0.01 0.01 0.01 0.01 0.00 0.00 0.01 0.00 0.00 0.00 0.00 0.00 0.00 0.01 0.02 0.05 0.07 0.06 0.01 0.00 0.00 0.00 0.00 0.00 0.00 0.00 0.00 0.00 0.00 0.00 0.00 0.00 0.00
0.01 0.00 0.00 0.00 0.01 0.00 0.00 0.00 0.00 0.00 0.00 0.00 0.00 0.00 0.01 0.01 0.00 0.00 0.01 0.00 0.00 0.00 0.00 0.01 0.02 0.02 0.01 0.02 0.03 0.06 0.01 0.01 0.00 0.00 0.00 0.00 0.00 0.00 0.00 0.00 0.00 0.00 0.00 0.00 0.00
0.00 0.00 0.00 0.01 0.00 0.00 0.00 0.00 0.00 0.00 0.00 0.00 0.00 0.00 0.01 0.01 0.00 0.00 0.00 0.00 0.00 0.00 0.00 0.01 0.02 0.00 0.00 0.00 0.02 0.04 0.04 0.05 0.01 0.00 0.00 0.00 0.00 0.00 0.00 0.00 0.00 0.00 0.00 0.00 0.00
0.00 0.00 0.00 0.00 0.00 0.00 0.00 0.00 0.00 0.00 0.00 0.00 0.00 0.01 0.02 0.01 0.00 0.00 0.00 0.00 0.00 0.00 0.00 0.01 0.02 0.01 0.01 0.00 0.01 0.01 0.02 0.07 0.06 0.01 0.01 0.00 0.00 0.00 0.00 0.00 0.00 0.00 0.00 0.00 0.00
0.00 0.00 0.01 0.00 0.00 0.00 0.00 0.00 0.00 0.00 0.00 0.00 0.00 0.01 0.02 0.00 0.00 0.00 0.00 0.00 0.00 0.00 0.00 0.00 0.01 0.04 0.02 0.02 0.00 0.02 0.07 0.09 0.07 0.07 0.02 0.02 0.01 0.00 0.00 0.00 0.00 0.00 0.00 0.00 0.00
0.00 0.01 0.00 0.00 0.00 0.01 0.00 0.00 0.00 0.00 0.00 0.00 0.00 0.02 0.01 0.00 0.00 0.00 0.00 0.00 0.00 0.00 0.00 0.00 0.00 0.00 0.01 0.02 0.01 0.03 0.06 0.06 0.02 0.10 0.08 0.04 0.00 0.00 0.00 0.00 0.00 0.00 0.00 0.00 0.00
0.00 0.00 0.00 0.00 0.00 0.00 0.00 0.00 0.00 0.00 0.00 0.00 0.00 0.00 0.00 0.00 0.00 0.00 0.00 0.00 0.00 0.00 0.00 0.00 0.00 0.01 0.03 0.02 0.02 0.05 0.03 0.01 0.00 0.01 0.05 0.03 0.00 0.00 0.00 0.00 0.00 0.00 0.00 0.00 0.00
0.01 0.00 0.00 0.00 0.00 0.00 0.00 0.00 0.00 0.00 0.00 0.00 0.00 0.00 0.00 0.00 0.00 0.00 0.00 0.00 0.00 0.00 0.00 0.00 0.01 0.02 0.02 0.02 0.01 0.01 0.01 0.00 0.00 0.00 0.01 0.00 0.00 0.00 0.00 0.00 0.00 0.00 0.00 0.00 0.00
0.00 0.00 0.00 0.00 0.00 0.00 0.00 0.00 0.00 0.00 0.00 0.00 0.00 0.00 0.00 0.00 0.00 0.00 0.00 0.01 0.01 0.00 0.00 0.00 0.00 0.00 0.00 0.00 0.00 0.00 0.01 0.00 0.00 0.00 0.01 0.00 0.00 0.00 0.00 0.00 0.00 0.00 0.00 0.00 0.00
0.00 0.00 0.00 0.00 0.00 0.00 0.00 0.00 0.01 0.02 0.01 0.00 0.00 0.00 0.00 0.00 0.00 0.00 0.00 0.00 0.00 0.00 0.00 0.00 0.00 0.00 0.00 0.00 0.00 0.00 0.01 0.01 0.01 0.01 0.02 0.01 0.00 0.01 0.00 0.00 0.00 0.00 0.00 0.00 0.00
0.00 0.00 0.00 0.00 0.00 0.00 0.00 0.00 0.00 0.00 0.01 0.00 0.00 0.00 0.00 0.00 0.00 0.00 0.00 0.00 0.00 0.00 0.00 0.00 0.00 0.00 0.00 0.00 0.00 0.00 0.00 0.00 0.00 0.01 0.04 0.02 0.02 0.01 0.00 0.00 0.00 0.00 0.00 0.00 0.00
0.00 0.00 0.00 0.00 0.00 0.00 0.00 0.00 0.00 0.00 0.00 0.00 0.00 0.00 0.00 0.00 0.00 0.00 0.00 0.00 0.00 0.00 0.00 0.00 0.00 0.00 0.00 0.00 0.00 0.00 0.00 0.01 0.02 0.02 0.01 0.01 0.00 0.00 0.00 0.00 0.00 0.00 0.00 0.00 0.00
0.00 0.00 0.00 0.00 0.00 0.00 0.00 0.00 0.00 0.00 0.00 0.00 0.00 0.00 0.00 0.00 0.00 0.00 0.00 0.00 0.00 0.00 0.01 0.00 0.00 0.00 0.00 0.00 0.00 0.00 0.00 0.01 0.02 0.02 0.00 0.00 0.01 0.00 0.00 0.00 0.00 0.00 0.00 0.00 0.00
0.00 0.00 0.00 0.00 0.00 0.00 0.00 0.00 0.00 0.00 0.00 0.00 0.00 0.00 0.00 0.00 0.00 0.00 0.00 0.00 0.00 0.00 0.01 0.01 0.01 0.00 0.00 0.00 0.00 0.01 0.01 0.02 0.03 0.01 0.01 0.00 0.00 0.00 0.00 0.00 0.00 0.00 0.00 0.00 0.00
0.00 0.00 0.00 0.00 0.00 0.00 0.00 0.00 0.00 0.00 0.00 0.00 0.00 0.00 0.00 0.00 0.00 0.00 0.00 0.00 0.00 0.00 0.00 0.00 0.00 0.01 0.02 0.00 0.01 0.03 0.01 0.02 0.01 0.00 0.00 0.00 0.00 0.00 0.00 0.00 0.00 0.00 0.00 0.00 0.00
0.00 0.00 0.00 0.00 0.00 0.00 0.00 0.00 0.00 0.00 0.00 0.00 0.00 0.00 0.00 0.00 0.00 0.00 0.00 0.00 0.00 0.00 0.00 0.00 0.00 0.00 0.02 0.00 0.00 0.01 0.01 0.00 0.00 0.00 0.00 0.00 0.00 0.00 0.00 0.00 0.00 0.00 0.00 0.00 0.00
0.00 0.00 0.00 0.00 0.00 0.00 0.00 0.00 0.00 0.00 0.00 0.00 0.00 0.00 0.00 0.00 0.00 0.00 0.00 0.00 0.00 0.00 0.00 0.00 0.00 0.00 0.00 0.00 0.00 0.01 0.01 0.00 0.00 0.00 0.00 0.00 0.00 0.00 0.00 0.00 0.00 0.00 0.00 0.00 0.00
0.00 0.00 0.00 0.00 0.00 0.00 0.00 0.00 0.00 0.00 0.00 0.00 0.00 0.00 0.00 0.00 0.00 0.00 0.00 0.00 0.00 0.00 0.00 0.00 0.00 0.00 0.00 0.01 0.01 0.00 0.00 0.00 0.00 0.00 0.00 0.00 0.00 0.00 0.00 0.00 0.00 0.00 0.00 0.00 0.00
0.00 0.00 0.00 0.00 0.00 0.00 0.00 0.00 0.00 0.00 0.00 0.00 0.00 0.00 0.00 0.00 0.00 0.00 0.00 0.00 0.00 0.00 0.00 0.00 0.00 0.00 0.04 0.02 0.01 0.01 0.00 0.00 0.00 0.00 0.00 0.00 0.00 0.00 0.00 0.00 0.00 0.00 0.00 0.00 0.00
0.00 0.00 0.00 0.00 0.00 0.00 0.00 0.00 0.00 0.00 0.00 0.00 0.00 0.00 0.01 0.00 0.00 0.00 0.00 0.00 0.00 0.00 0.00 0.00 0.00 0.00 0.00 0.00 0.00 0.00 0.00 0.00 0.00 0.00 0.00 0.00 0.00 0.00 0.00 0.00 0.00 0.00 0.00 0.00 0.00
0.00 0.00 0.00 0.00 0.00 0.00 0.00 0.00 0.00 0.00 0.00 0.00 0.00 0.00 0.00 0.00 0.00 0.00 0.00 0.00 0.00 0.00 0.00 0.00 0.00 0.00 0.00 0.00 0.01 0.00 0.00 0.00 0.00 0.00 0.00 0.00 0.00 0.00 0.00 0.00 0.00 0.00 0.00 0.00 0.00
0.00 0.00 0.00 0.00 0.00 0.00 0.00 0.00 0.00 0.00 0.00 0.00 0.00 0.00 0.00 0.00 0.00 0.00 0.00 0.00 0.00 0.00 0.01 0.00 0.00 0.00 0.00 0.00 0.00 0.00 0.00 0.00 0.00 0.00 0.00 0.00 0.00 0.00 0.00 0.00 0.00 0.00 0.00 0.00 0.00
0.00 0.00 0.00 0.00 0.00 0.00 0.00 0.00 0.00 0.00 0.00 0.00 0.00 0.00 0.00 0.00 0.00 0.00 0.00 0.00 0.00 0.00 0.00 0.00 0.00 0.00 0.00 0.00 0.00 0.00 0.00 0.00 0.00 0.00 0.00 0.00 0.00 0.00 0.00 0.00 0.00 0.00 0.00 0.00 0.00
0.00 0.00 0.00 0.00 0.00 0.00 0.00 0.00 0.00 0.00 0.00 0.00 0.00 0.00 0.00 0.00 0.00 0.00 0.00 0.00 0.00 0.00 0.00 0.00 0.00 0.00 0.00 0.00 0.00 0.00 0.01 0.01 0.00 0.00 0.00 0.00 0.00 0.00 0.00 0.00 0.00 0.00 0.00 0.00 0.00
0.00 0.00 0.00 0.00 0.00 0.00 0.00 0.00 0.00 0.00 0.00 0.00 0.00 0.00 0.00 0.00 0.00 0.00 0.00 0.00 0.00 0.00 0.00 0.00 0.00 0.00 0.00 0.00 0.00 0.01 0.01 0.01 0.01 0.00 0.00 0.00 0.00 0.00 0.00 0.00 0.00 0.00 0.00 0.00 0.00
MSLP
1018.94 1018.65 1018.14 1017.88 1017.81 1017.61 1017.19 1016.98 1016.55 1016.15 1015.70 1015.27 1014.88 1014.52 1014.19 1013.83 1013.64 1013.61 1013.01 1012.36 1011.89 1011.48 1011.57 1011.65 1011.73 1011.59 1011.52 1011.70 1011.27 1011.47 1011.28 1010.14 1009.97 1009.98 1009.39 1009.03 1009.66 1009.78 1009.85 1010.37 1010.69 1010.79 1010.88 1010.87 1011.47
1018.89 1018.50 1018.28 1018.04 1017.43 1016.97 1016.72 1016.42 1016.33 1015.96 1015.48 1015.01 1014.56 1014.22 1013.90 1013.64 1013.55 1013.05 1011.29 1010.91 1011.08 1011.25 1011.40 1011.69 1011.75 1011.69 1011.34 1011.06 1011.03 1010.59 1010.13 1009.35 1009.55 1009.53 1009.10 1008.84 1008.94 1009.29 1009.54 1010.22 1010.77 1010.95 1011.15 1011.29 1011.75
1018.80 1018.55 1018.22 1017.68 1017.37 1017.01 1016.62 1016.30 1015.90 1015.67 1015.20 1014.69 1014.29 1013.98 1013.80 1013.61 1013.36 1011.34 1010.17 1010.71 1010.79 1011.07 1011.01 1011.19 1011.56 1011.69 1011.05 1010.44 1010.18 1009.65 1008.84 1009.23 1009.04 1009.06 1009.07 1008.76 1008.97 1009.12 1009.16 1009.81 1009.97 1009.88 1010.62 1011.24 1011.94
1018.68 1018.22 1017.71 1017.51 1017.32 1016.97 1016.70 1016.27 1015.74 1015.15 1014.81 1014.36 1013.97 1013.61 1013.41 1013.73 1013.13 1010.50 1010.21 1010.99 1011.14 1010.91 1010.48 1010.78 1011.24 1011.17 1010.40 1009.81 1009.40 1009.49 1009.07 1008.81 1008.89 1008.91 1008.94 1008.91 1009.02 1009.08 1009.07 1008.59 1009.16 1009.66 1010.20 1010.64 1011.38
1018.48 1017.96 1017.71 1017.44 1017.08 1016.69 1016.21 1015.69 1015.21 1014.61 1014.21 1013.97 1013.59 1013.51 1013.31 1012.96 1012.27 1010.61 1010.76 1011.71 1011.45 1010.99 1010.77 1010.57 1010.65 1010.61 1009.93 1009.42 1009.55 1008.96 1008.60 1008.63 1008.64 1008.81 1008.86 1009.04 1009.09 1009.15 1009.19 1008.60 1008.92 1009.43 1010.10 1010.83 1011.49
1018.38 1017.99 1017.64 1017.35 1016.95 1016.58 1016.01 1015.31 1014.72 1014.11 1013.71 1013.45 1012.97 1012.86 1013.02 1012.18 1011.26 1010.95 1011.19 1011.53 1011.57 1011.52 1011.21 1010.84 1010.21 1010.03 1009.90 1009.58 1009.39 1008.45 1008.81 1008.67 1008.73 1008.60 1008.96 1009.33 1009.31 1009.42 1009.16 1009.11 1009.20 1009.61 1009.87 1010.49 1011.09
1018.22 1017.88 1017.55 1017.14 1016.71 1016.18 1015.59 1014.98 1014.22 1013.54 1013.15 1012.67 1012.20 1012.24 1012.36 1011.51 1010.88 1010.79 1010.79 1010.96 1011.20 1011.38 1011.05 1010.95 1010.88 1010.61 1009.82 1009.42 1008.96 1008.75 1008.92 1008.55 1008.54 1008.47 1009.01 1009.47 1009.50 1009.25 1009.19 1009.23 1009.57 1009.95 1010.42 1010.71 1011.16
1018.17 1017.82 1017.29 1016.89 1016.43 1015.99 1015.45 1014.78 1013.95 1013.06 1012.55 1011.90 1011.56 1011.84 1011.68 1010.87 1010.62 1010.67 1010.74 1010.82 1010.63 1010.74 1010.92 1010.81 1010.86 1010.69 1010.36 1009.06 1008.74 1008.91 1009.20 1008.89 1007.93 1008.42 1008.87 1009.35 1008.29 1008.95 1009.19 1009.48 1009.68 1009.99 1010.29 1010.82 1011.37
1017.96 1017.66 1017.34 1016.99 1016.49 1015.88 1015.22 1014.42 1013.51 1012.68 1012.15 1011.66 1011.79 1011.97 1011.61 1010.81 1010.68 1010.32 1010.68 1010.96 1010.81 1010.58 1010.68 1010.58 1010.93 1010.46 1009.66 1008.96 1008.97 1008.60 1008.04 1008.02 1008.04 1007.64 1008.50 1009.06 1008.46 1008.60 1008.97 1009.63 1009.86 1010.04 1010.36 1010.79 1011.39
1018.18 1017.60 1017.02 1016.57 1015.98 1015.36 1014.80 1013.87 1013.07 1012.66 1012.59 1011.71 1011.90 1012.54 1011.58 1011.25 1010.91 1010.56 1010.48 1010.65 1010.80 1010.76 1010.83 1010.86 1010.76 1010.13 1008.97 1008.38 1007.32 1007.65 1008.00 1007.90 1007.77 1007.99 1008.12 1008.64 1008.68 1008.60 1008.84 1009.43 1009.82 1010.06 1010.50 1010.90 1011.43
1018.12 1017.69 1017.26 1016.63 1015.81 1015.34 1014.94 1014.14 1014.03 1013.70 1013.80 1013.66 1013.00 1012.95 1011.95 1011.50 1011.06 1010.31 1010.04 1010.43 1010.49 1010.74 1010.74 1010.35 1010.15 1008.76 1008.57 1007.67 1007.40 1007.35 1007.67 1007.76 1007.72 1008.03 1007.92 1008.29 1008.89 1008.83 1008.94 1009.34 1009.82 1010.40 1010.38 1010.63 1011.35
1018.23 1017.56 1016.83 1016.31 1015.83 1015.44 1015.53 1015.70 1016.19 1016.42 1014.70 1013.41 1012.84 1012.67 1011.87 1011.84 1011.44 1010.38 1010.07 1010.58 1010.65 1010.69 1010.58 1010.54 1008.73 1008.87 1008.81 1008.13 1007.98 1007.74 1007.85 1007.87 1007.87 1007.78 1008.35 1008.46 1008.47 1008.66 1008.94 1008.75 1009.13 1009.52 1010.08 1010.45 1011.46
1017.82 1017.33 1016.58 1016.11 1015.90 1016.05 1016.34 1016.43 1016.15 1015.99 1015.68 1013.48 1012.66 1012.29 1011.75 1011.88 1011.09 1010.12 1010.13 1010.29 1010.57 1010.84 1010.66 1010.04 1008.91 1008.71 1008.76 1008.14 1007.59 1007.54 1007.67 1007.73 1007.74 1007.92 1008.57 1008.96 1008.78 1008.66 1008.21 1008.28 1008.34 1008.92 1009.52 1010.35 1010.52
1017.39 1017.04 1016.86 1016.24 1016.35 1016.55 1016.46 1016.47 1016.02 1015.63 1015.78 1013.78 1012.44 1011.49 1011.50 1011.22 1010.67 1009.76 1009.70 1010.03 1010.46 1010.59 1010.92 1010.76 1009.48 1008.96 1008.56 1008.36 1007.55 1007.30 1007.62 1008.09 1008.04 1008.41 1008.72 1008.44 1007.95 1007.80 1007.69 1007.87 1008.13 1008.26 1009.15 1009.71 1010.05
1017.60 1017.06 1016.74 1016.48 1016.72 1016.85 1016.69 1016.26 1015.86 1015.86 1015.90 1013.79 1012.25 1010.99 1011.11 1011.10 1010.28 1009.80 1009.58 1009.83 1010.27 1010.59 1010.77 1010.11 1009.40 1008.76 1008.57 1007.78 1007.96 1007.71 1007.70 1008.08 1008.28 1008.70 1008.83 1008.55 1008.18 1006.61 1006.96 1007.12 1006.80 1007.19 1007.79 1008.29 1009.13
1017.63 1017.26 1016.85 1017.03 1017.12 1016.78 1016.44 1016.18 1016.40 1016.97 1016.24 1014.31 1012.98 1012.09 1011.65 1010.74 1010.35 1009.96 1010.14 1009.94 1010.29 1010.60 1010.56 1010.07 1009.47 1008.80 1007.64 1008.05 1007.75 1007.86 1008.07 1008.26 1008.58 1009.07 1008.56 1007.93 1007.97 1006.80 1005.98 1004.36 1005.40 1006.39 1006.95 1007.66 1008.61
1017.61 1017.24 1016.84 1017.03 1017.23 1016.73 1016.35 1016.76 1017.72 1017.99 1016.91 1015.50 1014.09 1013.22 1012.39 1011.42 1010.58 1010.40 1010.30 1010.17 1010.34 1010.62 1010.33 1009.95 1009.31 1008.55 1007.67 1008.28 1008.15 1008.16 1008.67 1008.94 1009.18 1008.72 1007.81 1007.66 1008.34 1006.09 1004.76 1004.39 1004.44 1005.17 1006.15 1007.00 1007.90
1017.48 1017.26 1017.17 1016.85 1016.87 1016.57 1016.86 1017.56 1018.86 1018.76 1017.52 1016.18 1015.16 1013.88 1012.95 1011.76 1011.33 1010.98 1010.30 1010.04 1009.96 1010.03 1009.95 1009.41 1008.97 1008.05 1007.47 1007.33 1007.44 1007.67 1007.74 1007.91 1007.77 1008.17 1008.30 1008.28 1007.05 1005.31 1004.69 1004.32 1004.56 1004.69 1005.15 1006.17 1006.98
1017.47 1017.65 1017.51 1016.87 1016.44 1016.76 1017.84 1019.07 1019.75 1018.76 1017.94 1016.74 1015.33 1014.45 1013.45 1012.55 1012.52 1011.68 1010.57 1010.08 1009.42 1009.45 1009.55 1008.72 1007.82 1006.86 1006.63 1006.80 1006.87 1007.40 1007.89 1007.57 1008.08 1008.10 1008.29 1007.90 1006.86 1005.53 1004.83 1004.68 1005.01 1005.19 1005.56 1006.08 1006.63
1018.18 1018.07 1017.64 1017.05 1016.61 1017.02 1018.48 1019.85 1019.43 1018.45 1017.69 1017.06 1016.23 1015.40 1014.71 1013.36 1012.93 1012.24 1011.02 1010.05 1009.36 1008.84 1008.69 1008.23 1007.69 1006.28 1006.28 1006.51 1006.97 1007.12 1007.94 1008.48 1008.17 1008.27 1008.11 1008.00 1007.25 1006.01 1005.29 1005.27 1005.43 1005.65 1005.80 1006.03 1006.46
1018.60 1018.50 1017.26 1017.21 1017.10 1018.21 1020.15 1020.00 1019.06 1017.87 1017.52 1017.11 1016.57 1015.98 1015.40 1014.74 1013.56 1012.66 1011.51 1010.21 1009.78 1008.75 1008.37 1007.98 1007.44 1006.54 1006.15 1005.94 1006.05 1007.55 1008.04 1008.07 1008.19 1008.59 1007.93 1008.05 1007.13 1006.48 1006.00 1005.91 1005.92 1006.07 1006.19 1006.46 1006.64
1019.23 1019.14 1017.76 1017.09 1018.71 1021.07 1021.08 1020.29 1019.03 1017.93 1017.30 1016.92 1016.56 1016.27 1015.76 1015.08 1014.05 1013.10 1011.95 1010.77 1009.88 1009.42 1008.15 1007.53 1007.07 1006.51 1006.47 1006.40 1005.60 1006.58 1007.24 1007.66 1007.61 1008.30 1007.84 1007.16 1006.95 1006.42 1006.00 1006.29 1006.26 1006.30 1006.61 1006.65 1006.78
1020.68 1020.23 1018.38 1018.20 1020.80 1021.87 1020.97 1020.31 1019.28 1018.35 1017.68 1017.25 1016.88 1016.60 1016.35 1015.80 1014.90 1013.27 1012.25 1010.60 1009.92 1009.60 1008.40 1007.43 1007.04 1006.98 1007.57 1007.28 1006.90 1006.98 1007.32 1007.61 1007.63 1008.11 1007.76 1007.29 1006.98 1006.32 1006.41 1006.52 1006.51 1006.61 1006.86 1007.10 1006.98
1021.44 1021.65 1020.83 1020.96 1021.89 1022.08 1021.62 1020.96 1019.70 1018.54 1018.10 1017.80 1017.29 1016.87 1016.71 1016.00 1014.99 1013.78 1012.87 1011.27 1010.58 1009.76 1008.59 1007.54 1007.23 1007.11 1007.04 1006.25 1006.20 1007.08 1007.19 1007.63 1007.89 1008.11 1007.88 1007.03 1006.78 1006.73 1006.73 1006.70 1006.74 1006.92 1007.15 1007.23 1007.30
1022.25 1023.21 1023.08 1022.60 1022.72 1022.93 1022.01 1021.56 1020.50 1019.53 1018.65 1018.12 1017.55 1017.48 1017.66 1016.62 1015.24 1014.43 1013.54 1012.33 1010.55 1009.91 1009.33 1008.62 1007.95 1007.43 1006.97 1006.56 1006.36 1006.82 1007.23 1007.57 1007.87 1007.44 1007.11 1007.36 1006.93 1006.71 1006.71 1006.93 1007.17 1007.31 1007.60 1007.83 1008.07
1022.86 1023.48 1023.36 1023.26 1023.12 1023.30 1022.49 1022.26 1021.17 1020.27 1019.82 1018.70 1018.33 1017.73 1017.50 1017.00 1016.11 1014.84 1014.57 1013.90 1012.42 1010.71 1010.26 1009.16 1008.58 1008.03 1007.54 1006.86 1006.46 1007.13 1007.61 1007.51 1007.57 1007.60 1007.58 1007.58 1007.37 1006.78 1006.87 1007.20 1007.37 1007.52 1007.87 1008.27 1008.67
1022.82 1023.41 1023.80 1024.06 1023.59 1023.59 1023.00 1022.28 1021.46 1020.74 1019.73 1019.18 1018.74 1018.20 1017.09 1016.32 1015.87 1014.88 1014.35 1013.83 1013.01 1012.48 1011.40 1010.24 1009.69 1009.02 1008.81 1008.25 1007.64 1008.29 1008.15 1008.07 1008.26 1008.40 1008.74 1008.43 1007.70 1007.50 1007.59 1007.55 1007.53 1007.53 1007.86 1008.26 1008.76
Thickness
5588 5579 5574 5566 5556 5549 5543 5535 5529 5524 5520 5519 5520 5521 5525 5528 5529 5530 5534 5537 5539 5544 5551 5558 5563 5568 5573 5576 5588 5589 5587 5607 5615 5622 5639 5648 5640 5652 5659 5663 5669 5680 5689 5700 5701
5580 5573 5563 5554 5550 5545 5536 5528 5517 5512 5510 5511 5512 5513 5516 5519 5520 5520 5534 5537 5535 5535 5542 5545 5550 5554 5563 5574 5576 5581 5589 5608 5616 5623 5631 5642 5643 5647 5654 5654 5660 5669 5679 5689 5691
5572 5563 5554 5550 5541 5531 5524 5515 5508 5501 5501 5501 5503 5505 5505 5507 5507 5519 5531 5527 5527 5527 5535 5539 5540 5544 5556 5570 5576 5585 5597 5605 5611 5619 5624 5632 5638 5643 5649 5648 5661 5671 5673 5680 5681
5563 5557 5551 5541 5530 5521 5510 5502 5497 5495 5492 5495 5496 5497 5496 5492 5486 5516 5517 5515 5513 5519 5529 5531 5532 5538 5553 5560 5579 5572 5591 5600 5604 5611 5616 5621 5632 5634 5644 5661 5663 5666 5670 5674 5678
5558 5551 5541 5530 5522 5512 5503 5496 5489 5488 5488 5488 5486 5484 5483 5482 5489 5495 5498 5495 5500 5509 5516 5524 5527 5533 5545 5561 5564 5570 5587 5593 5600 5603 5607 5614 5621 5628 5637 5654 5658 5661 5664 5665 5668
5549 5540 5531 5522 5512 5501 5493 5487 5483 5482 5483 5480 5479 5475 5468 5469 5480 5479 5482 5482 5487 5493 5501 5508 5525 5533 5537 5546 5549 5575 5576 5583 5589 5599 5599 5602 5611 5619 5633 5639 5646 5651 5658 5661 5663
5541 5530 5520 5511 5503 5494 5486 5480 5478 5477 5476 5473 5470 5467 5463 5463 5472 5471 5474 5474 5478 5483 5491 5499 5504 5512 5530 5538 5551 5559 5558 5571 5578 5588 5588 5594 5597 5609 5625 5629 5635 5640 5644 5650 5655
5530 5520 5512 5502 5494 5484 5478 5473 5472 5470 5469 5466 5464 5458 5454 5460 5460 5459 5461 5464 5469 5477 5482 5490 5494 5500 5512 5537 5546 5546 5546 5548 5576 5578 5581 5585 5602 5610 5616 5619 5626 5633 5639 5642 5648
5522 5511 5501 5490 5482 5475 5471 5469 5467 5461 5461 5460 5451 5445 5439 5448 5446 5449 5449 5450 5454 5465 5471 5481 5486 5498 5515 5525 5528 5537 5548 5554 5567 5583 5579 5578 5595 5609 5610 5610 5615 5625 5631 5636 5640
5510 5502 5493 5483 5475 5471 5466 5465 5463 5450 5446 5450 5441 5429 5433 5431 5431 5436 5438 5441 5442 5450 5459 5464 5473 5488 5509 5515 5523 5538 5540 5549 5560 5567 5575 5575 5583 5597 5605 5603 5608 5616 5621 5628 5632
5501 5490 5480 5473 5469 5461 5458 5456 5452 5447 5423 5418 5419 5412 5415 5415 5417 5422 5429 5429 5434 5437 5440 5459 5463 5485 5497 5525 5540 5545 5543 5550 5557 5562 5568 5573 5573 5585 5593 5596 5598 5602 5613 5623 5625
5491 5484 5477 5470 5459 5451 5442 5431 5418 5411 5418 5418 5412 5405 5406 5403 5400 5410 5415 5413 5416 5421 5428 5439 5460 5488 5500 5512 5521 5524 5529 5537 5546 5558 5558 5563 5570 5577 5577 5592 5598 5604 5607 5616 5614
5488 5479 5472 5462 5449 5439 5428 5419 5412 5407 5399 5406 5406 5400 5400 5395 5400 5406 5408 5406 5405 5404 5415 5426 5465 5482 5489 5493 5508 5515 5521 5533 5547 5549 5548 5550 5555 5563 5580 5584 5594 5600 5608 5609 5617
5485 5473 5462 5455 5441 5429 5423 5412 5408 5405 5365 5397 5404 5406 5400 5396 5396 5408 5409 5408 5401 5399 5398 5403 5441 5457 5474 5476 5507 5513 5524 5525 5535 5537 5538 5551 5554 5563 5578 5582 5585 5598 5600 5606 5615
5475 5466 5456 5444 5432 5422 5418 5411 5405 5396 5337 5405 5397 5405 5400 5397 5406 5408 5411 5408 5396 5397 5397 5406 5424 5443 5453 5481 5496 5512 5520 5520 5528 5529 5531 5534 5546 5574 5574 5577 5595 5602 5605 5613 5617
5466 5455 5447 5434 5424 5419 5413 5408 5397 5352 5320 5388 5391 5389 5389 5403 5407 5407 5399 5404 5398 5393 5396 5403 5413 5431 5463 5472 5493 5502 5507 5513 5518 5509 5524 5539 5546 5555 5568 5607 5608 5605 5607 5610 5611
5458 5448 5441 5427 5418 5414 5410 5399 5358 5342 5383 5387 5382 5382 5382 5389 5407 5400 5388 5399 5394 5365 5355 5398 5406 5424 5449 5452 5466 5487 5488 5496 5497 5511 5529 5522 5524 5562 5586 5598 5609 5609 5609 5609 5609
5451 5441 5431 5424 5418 5413 5402 5378 5337 5361 5366 5375 5371 5376 5383 5398 5399 5396 5399 5401 5398 5395 5396 5401 5393 5418 5439 5454 5468 5479 5499 5502 5510 5520 5521 5508 5538 5565 5578 5588 5593 5605 5608 5605 5606
5444 5433 5424 5419 5415 5405 5385 5342 5339 5369 5371 5366 5371 5375 5379 5397 5390 5390 5399 5404 5416 5403 5404 5406 5425 5430 5445 5460 5476 5471 5482 5508 5496 5487 5518 5519 5533 5556 5567 5578 5582 5590 5594 5602 5606
5436 5423 5417 5412 5408 5397 5364 5359 5357 5364 5364 5360 5356 5364 5371 5383 5371 5389 5397 5404 5413 5415 5415 5420 5410 5441 5440 5458 5463 5474 5480 5489 5492 5508 5522 5509 5511 5553 5563 5569 5574 5581 5587 5594 5602
5423 5412 5414 5406 5400 5379 5342 5333 5359 5368 5363 5356 5353 5364 5360 5367 5375 5382 5396 5411 5402 5410 5418 5420 5427 5437 5442 5453 5467 5461 5468 5480 5482 5481 5523 5514 5535 5533 5553 5561 5570 5576 5580 5585 5591
5411 5388 5404 5402 5371 5317 5334 5361 5369 5363 5362 5358 5359 5357 5364 5367 5362 5363 5385 5402 5410 5404 5423 5428 5427 5438 5442 5438 5479 5479 5481 5481 5500 5497 5483 5512 5529 5528 5538 5546 5555 5566 5569 5577 5583
5387 5383 5395 5391 5340 5327 5351 5355 5358 5357 5355 5353 5353 5355 5357 5356 5362 5378 5387 5407 5412 5405 5416 5428 5431 5434 5429 5434 5454 5467 5472 5470 5481 5483 5498 5513 5526 5525 5533 5542 5550 5559 5560 5566 5578
5372 5360 5362 5354 5349 5351 5349 5341 5345 5352 5346 5342 5346 5351 5344 5350 5367 5374 5381 5396 5398 5408 5418 5424 5430 5429 5416 5441 5448 5441 5473 5472 5481 5492 5496 5514 5519 5527 5531 5539 5546 5549 5552 5557 5566
5358 5338 5346 5322 5324 5333 5340 5335 5335 5335 5338 5335 5341 5341 5326 5328 5350 5351 5367 5381 5398 5407 5407 5411 5425 5427 5433 5437 5455 5455 5464 5472 5483 5495 5516 5512 5518 5524 5531 5533 5538 5542 5545 5549 5553
5345 5338 5332 5335 5332 5305 5305 5299 5326 5328 5320 5321 5325 5332 5328 5337 5344 5361 5358 5367 5378 5392 5393 5406 5426 5426 5436 5449 5465 5463 5459 5468 5480 5485 5492 5500 5510 5520 5520 5523 5528 5534 5540 5543 5545
5348 5334 5329 5311 5310 5288 5293 5297 5312 5308 5316 5318 5317 5317 5325 5342 5342 5352 5358 5364 5371 5373 5385 5403 5406 5415 5432 5427 5454 5461 5456 5469 5475 5477 5487 5501 5511 5509 5517 5522 5530 5534 5540 5541 5541